Meteo pe oră la Dzialy

Astăzi, 3 Martie, Miercuri

Timp Temperatura Precipitaţii Vânt Presiune Umiditate
00:00 +4°C° 0 mm 0 m/s 758 mmHg 84%
01:00 +3°C° 0 mm 0 m/s 758 mmHg 85%
02:00 +3°C° 0 mm 0 m/s 757 mmHg 85%
03:00 +4°C° 0 mm 1 m/s 757 mmHg 85%
04:00 +4°C° 0 mm 1 m/s 756 mmHg 85%
05:00 +3°C° 0 mm 1 m/s 756 mmHg 85%
06:00 +3°C° 0 mm 1 m/s 756 mmHg 85%
07:00 +3°C° 0 mm 1 m/s 756 mmHg 86%
08:00 +5°C° 0 mm 1 m/s 756 mmHg 79%
09:00 +7°C° 0 mm 1 m/s 755 mmHg 73%
10:00 +8°C° 0 mm 2 m/s 755 mmHg 66%
11:00 +9°C° 0 mm 2 m/s 755 mmHg 61%
12:00 +12°C° 0 mm 2 m/s 754 mmHg 55%
13:00 +13°C° 0 mm 2 m/s 754 mmHg 49%
14:00 +13°C° 0 mm 2 m/s 753 mmHg 49%
15:00 +13°C° 0 mm 2 m/s 752 mmHg 49%
16:00 +14°C° 0 mm 2 m/s 751 mmHg 49%
17:00 +12°C° 0 mm 2 m/s 751 mmHg 53%
18:00 +10°C° 0 mm 2 m/s 751 mmHg 56%
19:00 +8°C° 0 mm 3 m/s 751 mmHg 60%
20:00 +8°C° 0 mm 3 m/s 750 mmHg 63%
21:00 +7°C° 0 mm 3 m/s 750 mmHg 67%
22:00 +5°C° 0 mm 4 m/s 749 mmHg 71%
23:00 +5°C° 0 mm 4 m/s 749 mmHg 74%

Mâine, 4 Martie, Joi

Timp Temperatura Precipitaţii Vânt Presiune Umiditate
00:00 +4°C° 0 mm 4 m/s 749 mmHg 77%
01:00 +4°C° 0 mm 4 m/s 748 mmHg 79%
02:00 +4°C° 0 mm 4 m/s 748 mmHg 79%
03:00 +3°C° 0 mm 5 m/s 747 mmHg 78%
04:00 +3°C° 0 mm 5 m/s 746 mmHg 77%
05:00 +3°C° 0 mm 5 m/s 746 mmHg 81%
06:00 +3°C° 0 mm 5 m/s 746 mmHg 86%
07:00 +3°C° 0 mm 5 m/s 746 mmHg 90%
08:00 +4°C° 0 mm 6 m/s 745 mmHg 84%
09:00 +5°C° 0 mm 6 m/s 745 mmHg 78%
10:00 +7°C° 0 mm 6 m/s 745 mmHg 72%
11:00 +8°C° 0 mm 7 m/s 745 mmHg 66%
12:00 +9°C° 0 mm 7 m/s 745 mmHg 59%
13:00 +10°C° 0 mm 7 m/s 744 mmHg 53%
14:00 +9°C° 0 mm 7 m/s 744 mmHg 57%
15:00 +9°C° 0 mm 6 m/s 743 mmHg 60%
16:00 +8°C° 0 mm 6 m/s 743 mmHg 64%
17:00 +5°C° 0 mm 6 m/s 743 mmHg 68%
18:00 +5°C° 0 mm 5 m/s 743 mmHg 72%
19:00 +3°C° 0 mm 5 m/s 743 mmHg 76%
20:00 +3°C° 0 mm 4 m/s 743 mmHg 75%
21:00 +3°C° 0 mm 4 m/s 743 mmHg 73%
22:00 +2°C° 0 mm 3 m/s 743 mmHg 72%
23:00 +2°C° 0 mm 3 m/s 744 mmHg 77%

Poimâine, 5 Martie, Vineri

Timp Temperatura Precipitaţii Vânt Presiune Umiditate
00:00 0°C° 0 mm 4 m/s 744 mmHg 83%
01:00 0°C° 0 mm 4 m/s 744 mmHg 89%
02:00 -1°C° 0.1 mm 4 m/s 744 mmHg 85%
03:00 -1°C° 0.1 mm 5 m/s 745 mmHg 80%
04:00 -2°C° 0.1 mm 5 m/s 745 mmHg 76%
05:00 -2°C° 0 mm 5 m/s 746 mmHg 75%
06:00 -3°C° 0 mm 4 m/s 746 mmHg 74%
07:00 -3°C° 0 mm 4 m/s 747 mmHg 74%
08:00 -2°C° 0 mm 4 m/s 747 mmHg 69%
09:00 -2°C° 0 mm 4 m/s 748 mmHg 64%
10:00 -1°C° 0 mm 4 m/s 748 mmHg 59%
11:00 0°C° 0 mm 4 m/s 748 mmHg 54%
12:00 +1°C° 0 mm 4 m/s 749 mmHg 48%
13:00 +1°C° 0 mm 4 m/s 749 mmHg 43%
14:00 +1°C° 0 mm 4 m/s 749 mmHg 43%
15:00 +1°C° 0 mm 4 m/s 749 mmHg 42%
16:00 +1°C° 0 mm 4 m/s 749 mmHg 42%
17:00 +1°C° 0 mm 3 m/s 750 mmHg 46%
18:00 0°C° 0 mm 3 m/s 750 mmHg 50%
19:00 +1°C° 0 mm 2 m/s 751 mmHg 54%
20:00 -1°C° 0 mm 2 m/s 751 mmHg 57%
21:00 -1°C° 0 mm 2 m/s 752 mmHg 60%
22:00 -1°C° 0 mm 2 m/s 752 mmHg 63%
23:00 -2°C° 0 mm 3 m/s 753 mmHg 64%

6 Martie, Sâmbătă

Timp Temperatura Precipitaţii Vânt Presiune Umiditate
00:00 -2°C° 0 mm 3 m/s 753 mmHg 66%
01:00 -3°C° 0 mm 4 m/s 754 mmHg 68%
02:00 -3°C° 0 mm 4 m/s 754 mmHg 69%
03:00 -3°C° 0 mm 4 m/s 754 mmHg 71%
04:00 -4°C° 0 mm 4 m/s 755 mmHg 72%
05:00 -4°C° 0 mm 3 m/s 755 mmHg 71%
06:00 -4°C° 0 mm 3 m/s 756 mmHg 70%
07:00 -2°C° 0 mm 3 m/s 756 mmHg 68%
08:00 -2°C° 0 mm 3 m/s 756 mmHg 60%
09:00 -1°C° 0 mm 3 m/s 757 mmHg 53%
10:00 0°C° 0 mm 3 m/s 757 mmHg 45%
11:00 0°C° 0 mm 3 m/s 757 mmHg 42%
12:00 +1°C° 0 mm 3 m/s 757 mmHg 39%
13:00 +1°C° 0 mm 4 m/s 757 mmHg 37%
14:00 +1°C° 0 mm 4 m/s 756 mmHg 39%
15:00 0°C° 0 mm 4 m/s 756 mmHg 41%
16:00 0°C° 0 mm 4 m/s 756 mmHg 44%
17:00 0°C° 0 mm 3 m/s 756 mmHg 48%
18:00 -1°C° 0 mm 3 m/s 756 mmHg 52%
19:00 -2°C° 0 mm 3 m/s 756 mmHg 56%
20:00 -2°C° 0 mm 3 m/s 756 mmHg 56%
21:00 -3°C° 0 mm 4 m/s 756 mmHg 56%
22:00 -3°C° 0 mm 4 m/s 755 mmHg 57%
23:00 -3°C° 0 mm 4 m/s 755 mmHg 56%

7 Martie, Duminică

Timp Temperatura Precipitaţii Vânt Presiune Umiditate
00:00 -4°C° 0 mm 5 m/s 755 mmHg 56%
01:00 -4°C° 0 mm 5 m/s 754 mmHg 55%
02:00 -4°C° 0 mm 5 m/s 754 mmHg 54%
03:00 -4°C° 0 mm 5 m/s 753 mmHg 53%
04:00 -4°C° 0 mm 5 m/s 752 mmHg 52%
05:00 -4°C° 0 mm 6 m/s 752 mmHg 51%
06:00 -4°C° 0 mm 6 m/s 752 mmHg 50%
07:00 -4°C° 0 mm 6 m/s 752 mmHg 50%
08:00 -2°C° 0 mm 6 m/s 752 mmHg 47%
09:00 -1°C° 0 mm 7 m/s 751 mmHg 45%
10:00 0°C° 0 mm 7 m/s 751 mmHg 43%
11:00 +2°C° 0 mm 7 m/s 751 mmHg 42%
12:00 +2°C° 0 mm 7 m/s 750 mmHg 42%
13:00 +3°C° 0 mm 7 m/s 750 mmHg 42%
14:00 +3°C° 0 mm 6 m/s 749 mmHg 44%
15:00 +3°C° 0 mm 6 m/s 749 mmHg 46%
16:00 +3°C° 0 mm 5 m/s 748 mmHg 49%
17:00 +1°C° 0 mm 5 m/s 748 mmHg 55%
18:00 0°C° 0 mm 4 m/s 748 mmHg 61%
19:00 -1°C° 0 mm 3 m/s 748 mmHg 67%
20:00 -1°C° 0 mm 3 m/s 747 mmHg 69%
21:00 -1°C° 0 mm 3 m/s 747 mmHg 72%
22:00 -2°C° 0 mm 3 m/s 747 mmHg 74%
23:00 -2°C° 0 mm 3 m/s 747 mmHg 75%

8 Martie, Luni

Timp Temperatura Precipitaţii Vânt Presiune Umiditate
00:00 -2°C° 0 mm 3 m/s 747 mmHg 76%
01:00 -2°C° 0 mm 3 m/s 746 mmHg 78%
02:00 -2°C° 0 mm 3 m/s 746 mmHg 78%
03:00 -2°C° 0 mm 3 m/s 745 mmHg 79%
04:00 -2°C° 0 mm 3 m/s 745 mmHg 79%
05:00 -3°C° 0 mm 4 m/s 745 mmHg 78%
06:00 -3°C° 0 mm 4 m/s 745 mmHg 78%
07:00 -2°C° 0 mm 5 m/s 745 mmHg 77%
08:00 -2°C° 0.1 mm 5 m/s 745 mmHg 77%
09:00 -1°C° 0.1 mm 5 m/s 746 mmHg 78%
10:00 -2°C° 0.1 mm 6 m/s 746 mmHg 78%
11:00 -1°C° 0.1 mm 5 m/s 746 mmHg 79%
12:00 0°C° 0.1 mm 4 m/s 746 mmHg 79%
13:00 0°C° 0.1 mm 4 m/s 746 mmHg 80%
14:00 0°C° 0 mm 4 m/s 747 mmHg 72%
15:00 +1°C° 0 mm 3 m/s 747 mmHg 65%
16:00 +1°C° 0 mm 3 m/s 747 mmHg 57%
17:00 0°C° 0 mm 3 m/s 747 mmHg 61%
18:00 -1°C° 0 mm 3 m/s 748 mmHg 64%
19:00 -2°C° 0 mm 2 m/s 748 mmHg 68%
20:00 -2°C° 0 mm 3 m/s 749 mmHg 72%
21:00 -4°C° 0 mm 3 m/s 749 mmHg 77%
22:00 -4°C° 0 mm 4 m/s 750 mmHg 82%
23:00 -4°C° 0 mm 4 m/s 750 mmHg 82%
Arată mai mult

Formular de consimțământ

Meteoprog și furnizorii noștri de servicii pot stoca și accesa date personale, precum cookies, identificatori de dispozitiv sau alte tehnologii similare pe dispozitivul dumneavoastră și procesa astfel de date pentru a personaliza conținutul și reclamele, dar și pentru a oferi caracteristici de social media și pentru a analiza traficul.

  • Stocarea și/sau accesarea informațiilor pe dispozitivul dumneavoastră

    Cookies, identificatori de dispozitiv sau alte informații pot fi stocate sau accesate pe dispozitiv în scopurile indicate mai sus.

  • Reclame și conținut personalizat, evaluarea reclamelor și a conținutului, informații despre audiențe și dezvoltarea produselor

    Reclamele și conținutul pot fi personalizate pe baza unui profil. Pot fi adăugate date suplimentare pentru a personaliza mai bine reclamele și conținutul. Performanța reclamelor și conținutului poate fi măsurată. Pot fi obținute informații despre utilizatorii care au văzut reclamele și conținutul. Aceste date pot fi utilizate pentru a dezvolta sau îmbunătăți experiența utilizatorilor, sistemele și software-ul.

Dând clic pe ‘Sunt de acord’, permiteți utilizarea cookie-urilor menționate, a identificatorilor de dispozitiv, balizelor web sau altor tehnologii similare. Setările pot fi modificate din browser-ul dispozitivului dumneavoastră.

În anumite scopuri, interesele legitime pot prima asupra consimțământului. Puteți citi mai multe informații în acest sens în Politica privind Confidențialitatea Datelor și Cookie.